BEE229 EGHI-EGJJ

Flight info

Callsign BEE229
Flight time 0h 26m
Altitude 12000
Route NEDUL Q41 ORTAC
Aircraft DH8D/M-SDE2E3FGRY/H

Departure

Time 2026-05-09 13:34
Airport Southampton Airport (EGHI)

Arrival

Time 2026-05-09 14:00
Airport Jersey Airport (EGJJ)
Time Latitude Longitude Altitude Speed Heading
2026-05-09 13:08 50.94997 -1.36035 53 ft 0 kts 289°
2026-05-09 13:24 50.94997 -1.36036 53 ft 0 kts 289°
2026-05-09 13:24 50.94996 -1.36034 53 ft 1 kts 289°
2026-05-09 13:24 50.94991 -1.36012 53 ft 2 kts 289°
2026-05-09 13:24 50.94986 -1.35990 53 ft 2 kts 289°
2026-05-09 13:25 50.94978 -1.35971 53 ft 2 kts 333°
2026-05-09 13:25 50.94965 -1.35969 53 ft 0 kts 19°
2026-05-09 13:25 50.94962 -1.35971 53 ft 0 kts 20°
2026-05-09 13:28 50.94967 -1.35968 53 ft 1 kts 19°
2026-05-09 13:28 50.94976 -1.35963 53 ft 1 kts 19°
2026-05-09 13:29 50.94984 -1.35959 53 ft 1 kts 19°
2026-05-09 13:29 50.95007 -1.35946 53 ft 4 kts 18°
2026-05-09 13:29 50.95047 -1.35922 53 ft 7 kts 30°
2026-05-09 13:29 50.95041 -1.35820 53 ft 10 kts 109°
2026-05-09 13:30 50.95020 -1.35718 53 ft 8 kts 95°
2026-05-09 13:30 50.95076 -1.35650 53 ft 12 kts 18°
2026-05-09 13:30 50.95205 -1.35579 53 ft 27 kts 19°
2026-05-09 13:30 50.95383 -1.35480 53 ft 23 kts 18°
2026-05-09 13:31 50.95516 -1.35406 53 ft 17 kts 19°
2026-05-09 13:31 50.95620 -1.35348 53 ft 14 kts 19°
2026-05-09 13:31 50.95701 -1.35302 53 ft 10 kts 19°
2026-05-09 13:31 50.95779 -1.35259 53 ft 12 kts 18°
2026-05-09 13:32 50.95860 -1.35257 53 ft 10 kts 350°
2026-05-09 13:32 50.95847 -1.35221 53 ft 0 kts 198°
2026-05-09 13:32 50.95821 -1.35238 53 ft 14 kts 203°
2026-05-09 13:33 50.95792 -1.35260 53 ft 0 kts 206°
2026-05-09 13:33 50.95767 -1.35274 53 ft 21 kts 197°
2026-05-09 13:33 50.95263 -1.35545 53 ft 123 kts 198°
2026-05-09 13:33 50.94307 -1.36113 252 ft 162 kts 200°
2026-05-09 13:34 50.93211 -1.36875 772 ft 182 kts 203°
2026-05-09 13:34 50.92024 -1.37719 1457 ft 193 kts 200°
2026-05-09 13:34 50.90794 -1.38573 2190 ft 201 kts 200°
2026-05-09 13:34 50.89487 -1.39466 2866 ft 210 kts 199°
2026-05-09 13:35 50.88128 -1.40391 3601 ft 216 kts 199°
2026-05-09 13:35 50.86750 -1.41324 4374 ft 219 kts 199°
2026-05-09 13:35 50.85362 -1.42263 5174 ft 221 kts 199°
2026-05-09 13:35 50.83957 -1.43212 6002 ft 221 kts 199°
2026-05-09 13:36 50.82560 -1.44154 6825 ft 222 kts 200°
2026-05-09 13:36 50.81162 -1.45097 7655 ft 222 kts 200°
2026-05-09 13:36 50.79747 -1.46049 8495 ft 222 kts 200°
2026-05-09 13:36 50.78352 -1.46987 9349 ft 222 kts 201°
2026-05-09 13:37 50.76944 -1.47932 10201 ft 221 kts 201°
2026-05-09 13:37 50.75533 -1.48879 11025 ft 221 kts 201°
2026-05-09 13:37 50.74115 -1.49830 11683 ft 231 kts 201°
2026-05-09 13:37 50.72565 -1.50865 12003 ft 254 kts 201°
2026-05-09 13:38 50.70873 -1.51993 12323 ft 274 kts 201°
2026-05-09 13:38 50.69159 -1.53130 12470 ft 267 kts 201°
2026-05-09 13:38 50.67413 -1.54282 12003 ft 276 kts 201°
2026-05-09 13:38 50.65651 -1.55456 11838 ft 276 kts 202°
2026-05-09 13:39 50.63931 -1.56646 11906 ft 266 kts 202°
2026-05-09 13:39 50.62266 -1.57803 11937 ft 258 kts 202°
2026-05-09 13:39 50.60631 -1.58939 11987 ft 251 kts 202°
2026-05-09 13:39 50.59057 -1.60032 12001 ft 245 kts 202°
2026-05-09 13:40 50.57518 -1.61100 12030 ft 241 kts 202°
2026-05-09 13:40 50.55972 -1.62174 12051 ft 248 kts 202°
2026-05-09 13:40 50.54354 -1.63301 12039 ft 262 kts 202°
2026-05-09 13:40 50.52647 -1.64486 12036 ft 274 kts 202°
2026-05-09 13:41 50.50880 -1.65710 12032 ft 283 kts 202°
2026-05-09 13:41 50.49045 -1.66979 12044 ft 291 kts 202°
2026-05-09 13:41 50.47174 -1.68272 12049 ft 297 kts 202°
2026-05-09 13:41 50.45277 -1.69580 12036 ft 301 kts 202°
2026-05-09 13:42 50.43354 -1.70906 12018 ft 300 kts 202°
2026-05-09 13:42 50.41447 -1.72218 12026 ft 299 kts 202°
2026-05-09 13:42 50.39564 -1.73513 12012 ft 298 kts 202°
2026-05-09 13:42 50.37647 -1.74830 12029 ft 297 kts 202°
2026-05-09 13:43 50.35762 -1.76124 12021 ft 297 kts 202°
2026-05-09 13:43 50.33890 -1.77408 12024 ft 296 kts 202°
2026-05-09 13:43 50.31991 -1.78709 12016 ft 296 kts 202°
2026-05-09 13:43 50.30103 -1.80002 12014 ft 295 kts 202°
2026-05-09 13:44 50.28232 -1.81283 12013 ft 295 kts 202°
2026-05-09 13:44 50.26367 -1.82558 12012 ft 294 kts 202°
2026-05-09 13:44 50.24472 -1.83852 12019 ft 294 kts 202°
2026-05-09 13:44 50.22615 -1.85120 12009 ft 294 kts 202°
2026-05-09 13:45 50.20731 -1.86404 12006 ft 294 kts 202°
2026-05-09 13:45 50.18876 -1.87668 12021 ft 293 kts 202°
2026-05-09 13:45 50.16996 -1.88948 12021 ft 293 kts 202°
2026-05-09 13:45 50.15135 -1.90214 12011 ft 293 kts 202°
2026-05-09 13:46 50.13259 -1.91488 12020 ft 293 kts 202°
2026-05-09 13:46 50.11397 -1.92752 12009 ft 293 kts 202°
2026-05-09 13:46 50.09549 -1.94007 12011 ft 293 kts 202°
2026-05-09 13:46 50.07666 -1.95283 12020 ft 293 kts 202°
2026-05-09 13:47 50.05817 -1.96534 12012 ft 293 kts 202°
2026-05-09 13:47 50.03954 -1.97795 12009 ft 292 kts 202°
2026-05-09 13:47 50.02075 -1.99066 11997 ft 292 kts 202°
2026-05-09 13:47 50.00229 -2.00313 12013 ft 291 kts 202°
2026-05-09 13:48 49.98364 -2.01572 12014 ft 291 kts 202°
2026-05-09 13:48 49.96496 -2.02832 12020 ft 291 kts 202°
2026-05-09 13:48 49.94651 -2.04076 12023 ft 290 kts 202°
2026-05-09 13:48 49.92803 -2.05320 12028 ft 290 kts 202°
2026-05-09 13:49 49.90944 -2.06571 12015 ft 290 kts 202°
2026-05-09 13:49 49.89103 -2.07808 12027 ft 290 kts 202°
2026-05-09 13:49 49.87244 -2.09056 12012 ft 290 kts 202°
2026-05-09 13:49 49.85411 -2.10286 12019 ft 290 kts 202°
2026-05-09 13:50 49.83554 -2.11532 12006 ft 290 kts 202°
2026-05-09 13:50 49.81704 -2.12771 12018 ft 289 kts 202°
2026-05-09 13:50 49.79866 -2.14002 12028 ft 290 kts 202°
2026-05-09 13:50 49.78016 -2.15240 12018 ft 290 kts 202°
2026-05-09 13:51 49.76167 -2.16476 12015 ft 290 kts 202°
2026-05-09 13:51 49.74298 -2.17724 12014 ft 290 kts 202°
2026-05-09 13:51 49.72440 -2.18964 12019 ft 290 kts 202°
2026-05-09 13:51 49.70579 -2.20140 12015 ft 289 kts 198°
2026-05-09 13:52 49.68666 -2.21043 12022 ft 289 kts 195°
2026-05-09 13:52 49.66717 -2.21905 12013 ft 289 kts 194°
2026-05-09 13:52 49.64785 -2.22757 12016 ft 289 kts 194°
2026-05-09 13:52 49.62878 -2.23599 12016 ft 289 kts 194°
2026-05-09 13:53 49.60943 -2.24456 12014 ft 289 kts 194°
2026-05-09 13:53 49.59002 -2.25315 12011 ft 289 kts 194°
2026-05-09 13:53 49.57078 -2.26168 12009 ft 289 kts 194°
2026-05-09 13:53 49.55152 -2.27021 12004 ft 289 kts 194°
2026-05-09 13:54 49.53212 -2.27881 12001 ft 288 kts 194°
2026-05-09 13:54 49.51278 -2.28738 12003 ft 288 kts 194°
2026-05-09 13:54 49.49352 -2.29591 12006 ft 288 kts 195°
2026-05-09 13:54 49.47448 -2.30434 12003 ft 288 kts 194°
2026-05-09 13:55 49.45515 -2.31289 12000 ft 288 kts 195°
2026-05-09 13:55 49.43597 -2.32137 12001 ft 288 kts 195°
2026-05-09 13:55 49.41656 -2.32994 11993 ft 288 kts 195°
2026-05-09 13:55 49.39759 -2.33832 11985 ft 288 kts 195°
2026-05-09 13:56 49.37819 -2.34688 11942 ft 290 kts 194°
2026-05-09 13:56 49.35894 -2.35534 11669 ft 287 kts 194°
2026-05-09 13:56 49.33972 -2.36377 11308 ft 286 kts 194°
2026-05-09 13:56 49.32059 -2.37217 10927 ft 286 kts 194°
2026-05-09 13:57 49.30168 -2.38047 10544 ft 287 kts 194°
2026-05-09 13:57 49.28257 -2.38886 10151 ft 287 kts 194°
2026-05-09 13:57 49.26338 -2.39728 9753 ft 286 kts 194°
2026-05-09 13:57 49.24426 -2.40539 9271 ft 279 kts 192°
2026-05-09 13:58 49.22559 -2.40495 8492 ft 273 kts 162°
2026-05-09 13:58 49.21030 -2.38893 7793 ft 265 kts 127°
2026-05-09 13:58 49.20410 -2.36389 7350 ft 253 kts 98°
2026-05-09 13:58 49.20245 -2.33724 6225 ft 263 kts 94°
2026-05-09 13:59 49.20147 -2.30983 4239 ft 251 kts 92°
2026-05-09 13:59 49.20128 -2.28712 2244 ft 235 kts 87°
2026-05-09 13:59 49.20185 -2.26379 1581 ft 213 kts 86°
2026-05-09 13:59 49.20359 -2.24213 1009 ft 197 kts 79°
2026-05-09 14:00 49.20546 -2.22424 624 ft 157 kts 82°
2026-05-09 14:00 49.20591 -2.21875 551 ft 150 kts 82°
2026-05-09 14:00 49.20804 -2.19512 276 ft 112 kts 83°
2026-05-09 14:00 49.20861 -2.18796 274 ft 40 kts 86°
2026-05-09 14:01 49.20881 -2.18487 275 ft 18 kts 86°
2026-05-09 14:01 49.20825 -2.18377 275 ft 13 kts 181°
2026-05-09 14:01 49.20748 -2.18450 274 ft 14 kts 230°
2026-05-09 14:01 49.20725 -2.18593 274 ft 14 kts 263°
2026-05-09 14:02 49.20712 -2.18750 274 ft 15 kts 262°
2026-05-09 14:02 49.20698 -2.18912 274 ft 15 kts 262°
2026-05-09 14:02 49.20684 -2.19076 275 ft 15 kts 263°
2026-05-09 14:02 49.20685 -2.19245 275 ft 15 kts 285°
2026-05-09 14:03 49.20709 -2.19409 275 ft 16 kts 271°
2026-05-09 14:03 49.20690 -2.19579 275 ft 16 kts 253°
2026-05-09 14:03 49.20616 -2.19704 274 ft 15 kts 251°
2026-05-09 14:03 49.20604 -2.19872 274 ft 16 kts 263°
2026-05-09 14:04 49.20514 -2.19920 273 ft 15 kts 170°
2026-05-09 14:04 49.20431 -2.19874 273 ft 11 kts 91°
2026-05-09 14:04 49.20436 -2.19778 274 ft 6 kts 84°
2026-05-09 14:04 49.20444 -2.19724 274 ft 4 kts 44°
2026-05-09 14:05 49.20479 -2.19725 274 ft 5 kts 352°
2026-05-09 14:05 49.20488 -2.19727 274 ft 0 kts 352°